Voltar ao catálogo

STARLINK-30817

AtivoComunicaçõesVLEO
NORAD 58238·PAYLOAD·🇺🇸 United States

Lançado Nov 8, 2023 de Cape Canaveral Space Force Station

Loading…

Próximas Passagens (próximas 24 horas)

TLE

AtualizadoSource: CelesTrak SupGP

Época: Sep 15, 2026, 03:14 UTC

1 58238C 23171J   26258.13520833  .00014823  00000+0  53687-3 0  2585
2 58238  43.0003 295.5853 0001375 262.3334 144.0525 15.27573235    16

Acompanhe STARLINK-30817 em tempo real com AllMySat

Download on the App Store